Wind_Speed
43 41 40 38 36 32 26 23 22 23 25 26 25 24 22 20 20 19 18 16 13 11 10 10 10 11 11 11 10 10 10 10 11 11 11 11 11 11 10 10 9 9 8 7 6 5 5 6 7 8 9 10 11 11 11 11 11 11 10 11 11 12 12
47 45 44 41 40 38 34 29 26 27 29 29 29 28 25 22 21 21 21 21 18 15 11 10 11 11 11 10 10 10 10 9 11 11 11 11 12 12 12 11 10 10 10 8 8 7 6 6 6 7 8 9 10 11 11 12 11 11 11 12 12 12 12
50 49 48 45 43 42 40 36 33 33 34 34 33 31 28 26 24 23 23 23 21 18 14 11 11 12 12 10 9 12 12 9 9 11 11 11 11 12 12 12 12 11 11 10 9 9 8 7 7 6 7 8 9 10 11 12 12 12 12 13 13 13 13
54 52 50 48 46 44 43 40 37 36 35 35 34 33 32 30 28 25 23 23 22 20 16 14 12 12 13 11 9 10 14 12 9 8 9 9 11 12 12 13 13 12 12 11 11 10 10 9 9 8 7 7 8 8 10 11 12 13 14 14 14 14 14
58 55 52 50 49 47 45 42 40 39 38 37 35 35 35 33 29 26 24 22 21 19 18 17 15 15 14 13 9 8 12 13 9 6 7 8 9 12 12 14 14 14 13 13 12 12 11 11 11 10 9 9 8 8 9 11 12 13 14 15 15 15 15
60 59 56 52 50 50 48 45 43 43 41 39 38 37 36 34 31 28 24 23 22 21 20 19 18 17 16 15 13 9 10 11 9 7 8 8 9 12 13 14 15 15 15 14 14 13 13 12 12 12 12 12 11 10 10 11 11 13 14 15 16 16 16
61 60 59 55 52 51 51 50 48 46 44 41 39 37 35 33 31 29 26 25 24 22 21 21 20 19 18 18 16 12 10 11 11 12 12 11 12 13 13 14 15 16 16 16 15 15 15 14 13 13 14 15 15 13 12 12 12 12 14 15 16 17 17
61 60 58 56 53 52 52 52 51 49 47 43 36 32 31 30 30 30 30 28 26 24 22 22 21 21 21 19 16 14 12 12 13 15 16 16 17 16 15 14 14 15 16 17 17 16 16 16 15 14 14 15 16 16 14 13 13 13 14 15 16 17 18
62 60 58 56 54 53 53 52 51 49 47 44 38 32 30 30 30 32 32 30 27 24 23 22 22 23 22 18 16 15 14 13 14 16 17 18 18 18 17 15 15 15 16 17 17 17 17 17 17 16 15 15 16 16 16 15 14 14 14 14 15 16 17
62 60 58 56 55 55 55 54 52 48 45 45 43 40 37 34 32 33 34 32 29 25 24 23 22 24 25 22 19 17 16 15 16 16 18 19 19 19 18 16 15 14 15 16 17 18 18 18 18 17 17 16 16 16 16 16 14 14 14 14 14 14 15
63 61 59 57 57 57 56 55 53 49 46 46 46 45 44 40 38 38 38 36 34 30 28 26 24 24 27 26 24 22 20 19 17 17 19 20 20 20 19 18 16 15 15 15 16 17 19 19 19 18 18 18 17 16 16 15 14 14 13 13 13 13 12
63 62 60 59 59 59 58 57 54 49 47 47 45 44 43 41 42 42 41 39 37 32 29 29 27 26 27 29 28 25 23 21 18 18 20 21 22 22 21 19 18 17 17 15 15 16 18 19 19 19 19 18 17 17 16 15 14 13 13 12 12 12 11
64 61 61 61 60 60 61 59 55 51 47 43 40 40 42 43 45 46 44 41 37 32 30 31 31 29 28 31 32 28 24 22 21 21 22 22 23 24 23 20 19 19 18 17 16 16 17 18 20 20 20 19 18 17 17 16 15 13 13 12 12 11 11
67 62 62 63 62 61 61 59 57 56 52 44 40 42 44 46 47 47 45 40 35 30 28 31 33 33 31 31 34 33 28 25 25 25 24 24 24 25 24 23 22 21 20 20 18 17 17 18 20 21 21 20 18 18 17 17 16 15 13 13 12 11 11
69 63 61 63 65 64 62 58 57 59 59 55 51 49 47 45 45 44 43 39 34 31 32 35 36 35 33 32 33 34 32 30 30 29 28 26 26 26 25 25 26 24 22 22 21 20 19 19 20 20 21 21 20 19 18 18 17 16 15 14 13 12 11
71 68 63 61 63 64 63 60 58 59 62 61 57 55 52 47 42 41 40 37 35 35 37 38 38 36 35 34 33 34 35 35 34 32 31 31 31 29 28 28 28 27 26 25 23 22 21 21 21 20 20 20 21 21 20 20 19 18 17 16 15 14 12
74 73 69 64 61 62 63 61 59 60 63 62 57 56 58 51 42 41 40 35 34 36 38 39 39 37 36 33 33 35 37 38 37 35 34 34 34 33 32 32 31 30 28 27 26 25 24 23 23 22 20 20 21 21 21 21 21 21 20 18 17 15 14
77 74 72 68 64 63 63 63 62 61 63 65 60 58 62 58 49 45 44 40 36 34 36 39 38 36 35 35 35 36 36 36 37 37 36 36 36 36 35 34 34 32 30 29 30 29 29 27 26 24 22 21 21 21 21 21 22 22 22 21 19 18 17
80 77 74 70 67 66 66 66 65 63 64 69 68 62 62 63 58 50 45 45 42 36 34 36 34 32 33 35 37 38 38 37 34 34 36 37 37 37 36 35 34 33 32 32 32 32 32 31 28 27 25 23 23 23 22 22 22 23 23 23 22 21 20
82 80 77 73 69 67 68 69 69 67 66 70 75 72 67 65 65 59 51 49 48 42 37 36 34 32 31 31 34 36 36 35 34 34 35 36 37 37 36 36 36 35 35 34 33 33 34 33 31 28 27 25 24 25 25 24 23 23 24 24 23 23 23
84 84 83 81 75 70 68 69 71 72 71 71 74 77 76 72 70 68 64 60 59 55 49 44 42 40 36 35 36 36 35 34 37 38 35 32 35 37 37 37 36 36 36 35 34 34 35 34 32 30 29 28 27 27 27 27 26 25 25 24 24 24 24
88 87 87 88 86 80 75 72 71 73 76 76 75 75 77 76 75 75 74 72 70 68 64 57 53 50 49 46 43 39 37 36 39 41 37 32 33 36 36 38 39 39 38 36 35 36 35 34 34 34 33 33 32 30 30 30 30 29 28 26 24 23 22
92 92 92 92 93 91 87 82 77 74 75 79 80 78 77 77 77 77 78 77 75 73 70 66 61 57 57 57 53 47 45 43 43 45 43 39 38 37 34 34 36 39 40 38 36 38 38 36 36 37 37 37 36 35 32 31 32 32 31 29 27 25 23
95 96 96 97 97 96 94 91 88 84 80 79 80 81 80 80 79 79 79 79 79 78 75 72 69 63 60 62 62 58 55 54 53 51 47 43 43 43 40 36 35 38 41 39 37 38 39 38 38 39 39 39 40 39 36 34 34 34 33 32 29 28 27
98 98 99 100 100 100 99 97 95 94 91 87 84 83 82 82 82 82 81 81 81 81 80 79 77 72 66 64 65 65 64 63 62 58 52 48 47 47 45 41 38 39 41 41 39 37 38 38 38 40 40 40 41 42 40 38 37 35 34 33 31 30 30
99 100 101 102 102 102 102 101 100 98 97 95 93 90 88 86 84 83 83 83 83 83 83 83 84 81 75 69 66 66 67 67 64 60 57 55 55 54 52 49 46 44 44 44 43 40 39 40 41 42 42 40 40 42 43 43 41 39 37 36 35 34 34
101 101 102 102 103 103 103 103 103 102 101 100 98 96 94 92 90 87 85 85 85 85 85 85 86 85 82 77 73 70 69 67 65 64 63 63 63 62 62 60 59 55 51 48 47 45 44 45 45 45 44 42 41 42 44 46 45 43 41 39 38 38 37
104 103 103 103 104 104 104 104 104 104 103 103 102 100 97 95 94 92 90 88 87 87 87 87 87 87 85 83 81 79 76 73 72 73 74 74 72 69 67 67 67 65 62 58 55 53 52 51 50 48 47 46 45 46 48 49 48 47 46 43 41 39 38
108 107 106 105 105 105 104 104 104 104 104 104 103 103 101 99 97 96 95 93 91 89 88 88 88 88 87 86 84 85 85 84 83 83 83 82 80 76 73 73 73 72 71 69 67 65 61 59 57 53 50 50 50 51 53 53 51 50 50 48 45 43 41
110 109 108 107 107 106 106 105 105 105 105 104 104 104 103 102 100 98 97 97 96 94 91 90 89 89 89 89 88 88 89 90 90 90 89 87 84 81 78 77 76 75 74 73 73 73 70 67 64 62 59 58 57 56 56 56 55 54 53 52 50 48 45
110 110 109 109 108 108 108 107 106 106 105 105 105 105 105 104 103 102 100 99 98 97 95 93 91 90 90 91 92 91 91 91 91 91 90 88 86 84 81 79 77 76 75 75 75 76 75 72 70 69 68 66 64 63 61 61 60 59 57 57 56 54 51
109 110 110 110 110 110 110 110 109 108 107 106 106 106 106 106 105 105 104 103 101 100 98 97 95 93 92 93 93 93 93 93 92 92 90 89 87 86 84 82 80 78 77 77 77 77 77 75 74 73 73 72 70 69 68 67 65 63 62 63 63 60 58
109 110 111 111 112 112 112 112 111 110 109 108 108 107 107 107 107 107 107 106 105 104 102 101 99 97 95 94 94 94 95 94 94 93 92 91 89 88 87 85 83 80 79 79 79 78 78 78 76 76 75 76 75 74 73 72 70 67 66 67 67 66 64
112 111 112 112 113 113 113 113 114 113 113 112 111 110 109 109 109 109 109 108 108 107 106 105 103 102 100 98 97 96 96 96 96 95 95 93 92 90 89 88 86 84 82 81 81 81 80 80 79 79 77 76 77 77 77 75 74 71 69 69 69 68 67
116 115 114 113 113 113 113 114 114 115 115 115 114 113 112 111 110 110 109 109 110 109 109 108 107 106 105 103 102 100 99 98 97 97 97 96 95 94 92 91 90 87 86 85 84 84 83 83 82 81 80 78 77 78 78 77 77 75 73 71 71 70 69
119 118 117 116 114 113 113 114 115 116 116 117 117 116 115 115 114 113 112 111 111 111 111 111 111 110 109 107 106 104 103 101 100 99 99 98 98 97 96 94 93 91 89 88 88 87 86 85 84 83 83 82 81 81 81 81 80 78 77 75 74 72 71
120 120 120 119 118 116 115 115 115 117 118 118 118 118 117 117 116 116 115 114 113 113 113 113 112 112 111 110 109 108 106 105 103 102 100 99 99 99 98 97 95 94 93 92 91 90 89 88 87 86 85 85 85 85 86 86 86 85 82 80 77 75 73
120 121 121 121 121 120 120 119 118 118 119 119 119 119 119 118 118 118 118 117 116 116 115 115 114 113 113 111 110 110 109 108 107 105 103 102 101 100 99 99 98 97 96 95 95 94 93 91 90 90 88 87 87 87 88 89 90 90 89 86 82 79 77
Wind_Direction
224 219 219 222 225 229 230 226 215 215 227 236 240 241 241 249 261 269 276 291 310 318 312 315 326 332 336 335 334 335 336 337 338 333 323 315 316 320 321 324 328 328 331 333 340 356 16 31 39 40 39 40 42 41 39 37 36 36 38 42 45 46 47
224 221 220 222 226 230 231 229 219 213 220 228 234 235 233 242 260 270 274 281 293 301 300 306 318 327 335 337 335 332 332 338 340 335 328 318 317 318 318 317 319 322 324 322 321 327 340 358 16 27 32 37 40 38 37 36 32 31 34 37 40 42 42
224 222 222 222 223 227 229 229 225 221 221 224 228 231 233 246 265 276 278 277 282 288 287 293 307 319 327 332 331 324 323 331 337 333 328 322 318 317 315 314 313 316 318 316 315 315 319 330 342 356 11 23 31 30 29 31 30 28 31 34 38 41 43
223 223 223 223 222 225 228 231 232 231 229 229 230 233 239 251 264 274 276 273 273 276 276 279 289 300 310 316 320 316 317 321 325 327 327 320 317 316 312 310 309 312 314 313 312 311 311 314 320 328 339 355 11 14 16 21 24 24 26 30 35 39 42
223 223 224 223 223 225 229 233 237 237 236 235 235 238 243 251 259 266 268 266 264 263 264 268 271 279 289 294 296 300 309 314 316 326 330 322 319 316 310 309 308 307 310 311 312 310 309 310 312 315 319 327 341 350 358 7 14 17 20 24 31 36 40
224 224 225 225 225 227 229 233 236 238 239 239 239 241 246 252 257 260 260 256 251 249 254 259 260 264 273 278 279 275 287 300 306 318 327 327 324 317 310 307 305 304 306 309 311 311 310 310 310 312 313 315 321 329 339 350 0 7 12 18 26 33 38
224 225 226 226 226 228 230 232 235 237 239 241 241 242 246 251 251 252 255 252 246 247 256 261 258 260 267 273 275 270 267 277 288 297 307 316 319 315 310 306 302 301 303 306 309 310 309 309 309 311 312 312 314 319 326 335 344 353 3 12 22 30 36
224 225 226 226 227 228 231 232 234 236 238 240 241 241 242 244 245 251 256 253 247 252 260 264 264 266 269 272 274 271 263 263 274 287 295 304 310 309 306 303 300 298 299 302 306 307 306 306 306 307 308 310 312 315 319 328 336 343 352 4 16 27 33
223 224 225 225 226 228 230 231 233 235 236 238 239 238 238 240 245 254 257 251 248 254 259 261 269 273 269 264 265 268 265 262 266 274 284 295 302 302 301 299 295 293 293 296 300 303 304 304 303 303 303 306 310 313 316 323 332 339 346 354 5 19 30
224 225 224 224 224 227 229 230 232 234 235 236 236 238 238 239 246 255 254 247 243 245 248 255 269 275 268 260 260 265 271 276 273 273 279 288 294 295 295 293 291 288 287 289 293 297 301 303 303 302 301 301 305 309 313 318 326 335 341 346 353 4 19
225 225 225 224 224 225 227 229 230 233 236 238 239 241 241 242 247 251 250 245 240 237 241 251 265 272 267 263 264 267 272 276 274 274 278 280 284 286 287 289 292 291 290 288 289 294 299 301 302 301 301 301 301 304 308 312 319 328 334 339 343 349 1
225 225 225 225 225 226 227 228 228 231 236 240 241 243 244 245 246 245 242 240 239 239 245 254 263 269 268 266 268 269 269 269 268 270 272 271 274 275 277 284 292 295 298 297 293 295 299 301 302 300 299 301 301 303 305 308 314 320 325 330 334 337 342
223 225 225 225 226 227 228 228 226 226 230 234 235 237 239 238 237 236 234 234 237 244 253 258 258 261 264 266 269 268 265 264 266 269 269 267 268 266 267 276 284 288 296 303 300 298 300 303 303 301 300 301 301 302 304 306 308 312 316 320 324 326 327
222 223 225 225 226 228 228 227 224 221 222 224 225 227 231 232 232 232 232 233 237 242 245 248 250 253 256 260 265 268 266 262 264 268 271 268 263 260 260 267 273 277 286 296 299 298 299 302 302 301 301 301 300 300 300 301 301 303 304 307 310 313 314
221 221 223 223 224 226 227 227 223 219 218 220 221 222 226 232 234 234 232 232 233 230 227 231 241 247 247 249 257 264 267 265 264 267 269 267 260 255 255 258 264 268 275 284 290 292 294 296 297 299 300 299 297 296 295 295 294 293 292 292 292 294 296
220 219 220 221 222 224 226 226 223 219 218 220 221 221 223 229 233 231 229 229 228 228 228 230 236 240 243 249 256 261 263 263 263 264 265 264 259 254 251 252 256 263 270 276 280 282 286 288 289 293 296 295 293 291 291 290 289 288 286 284 283 282 283
222 220 221 221 222 222 223 223 221 220 218 217 218 218 219 221 224 222 221 220 220 226 232 234 236 238 241 246 252 257 259 258 257 257 259 261 261 257 252 251 251 256 264 272 275 276 278 280 281 283 287 289 288 287 287 286 285 285 284 284 283 282 283
222 221 221 222 223 222 221 221 220 219 219 217 216 216 215 214 214 215 217 216 213 219 230 233 235 239 239 239 241 245 250 253 253 253 255 259 260 257 254 253 252 253 259 267 272 274 274 275 275 275 277 280 282 282 282 282 281 282 282 283 285 286 286
222 222 221 222 224 224 222 221 221 220 220 218 216 217 216 213 210 209 212 214 210 213 224 230 234 238 239 239 239 239 242 247 248 250 255 258 257 254 252 253 254 256 260 266 270 271 270 270 269 269 270 273 276 277 278 279 280 280 280 280 282 284 284
222 221 220 220 223 224 223 223 222 221 221 219 218 220 220 217 212 208 209 212 211 212 219 225 229 233 234 236 237 237 238 239 240 245 253 257 256 254 254 254 255 257 260 264 266 265 264 265 265 264 264 267 269 271 272 274 275 276 277 278 277 278 279
222 221 221 220 221 222 223 224 224 222 221 220 220 221 223 223 220 216 215 218 219 220 221 222 224 226 225 225 227 228 229 231 236 242 246 251 254 254 252 251 252 255 258 260 260 259 258 259 260 258 257 257 259 260 263 265 265 267 269 270 271 271 272
223 222 222 222 222 223 224 224 224 223 222 221 221 222 224 225 224 223 223 224 225 227 227 225 224 223 223 224 223 225 228 229 232 235 232 235 246 249 247 247 248 250 253 254 253 251 251 253 254 253 252 253 253 255 258 261 262 264 266 266 265 265 266
224 223 222 222 223 224 224 225 225 225 224 223 223 224 225 226 225 225 226 226 227 228 228 227 225 224 225 226 223 223 228 227 227 229 229 231 239 241 237 239 242 244 246 247 246 246 247 249 250 250 251 254 256 257 258 259 261 263 266 266 265 266 268
225 224 224 223 223 224 224 225 227 228 227 226 226 226 227 227 227 227 227 227 228 229 229 228 227 226 227 228 227 226 228 227 227 229 231 231 236 237 233 230 233 238 239 239 241 243 245 245 248 250 250 252 256 258 257 256 256 259 262 263 262 263 265
225 225 225 225 225 224 224 225 227 229 230 230 230 229 229 228 228 228 228 228 229 230 230 230 230 229 229 230 231 230 228 227 229 229 226 224 227 232 231 228 230 235 237 237 238 240 241 242 244 248 250 249 250 254 256 254 254 255 257 259 259 260 262
227 227 227 226 226 226 225 225 226 228 230 232 233 234 233 232 231 230 230 230 230 231 231 231 232 233 232 230 228 226 223 224 226 225 223 224 228 231 231 231 233 239 241 240 238 237 238 239 239 243 248 249 249 251 254 254 253 253 254 254 255 257 260
228 228 228 228 228 228 227 226 227 228 230 232 233 234 235 236 235 233 232 232 232 233 233 233 233 235 235 232 227 223 220 220 223 225 229 235 239 239 237 236 238 243 244 242 238 236 236 236 236 238 242 246 248 250 251 251 251 251 252 252 252 253 255
229 229 230 229 229 229 229 229 228 228 229 231 233 233 234 235 236 236 235 234 234 235 235 236 236 236 237 235 231 227 225 224 226 232 238 244 246 244 241 240 241 243 245 244 244 243 240 237 236 236 238 241 244 245 246 246 247 249 251 250 250 251 252
230 230 230 230 230 230 230 230 230 230 230 231 232 233 234 235 236 237 237 236 236 236 236 237 237 237 238 238 235 232 231 231 234 238 242 245 247 246 244 243 243 245 245 246 247 248 247 243 240 238 238 239 240 241 242 243 243 245 247 247 246 247 248
232 231 231 231 232 232 231 231 231 231 231 232 232 233 234 235 236 237 237 237 237 237 237 237 238 237 238 239 238 237 235 236 238 241 243 245 246 246 245 245 245 246 246 246 247 248 248 246 243 240 240 241 242 242 243 244 243 243 244 245 243 243 244
234 233 233 233 233 233 233 233 232 232 232 232 233 233 234 235 236 236 237 238 238 238 238 238 238 238 238 238 239 239 239 239 240 242 243 244 245 245 245 245 245 246 247 247 247 247 247 246 243 241 241 242 243 244 244 244 244 243 243 243 241 240 241
235 235 234 234 234 234 234 234 234 234 233 233 233 233 234 235 236 236 237 238 238 238 239 238 238 238 238 239 239 240 240 241 241 242 243 243 244 244 244 244 244 245 246 246 246 246 247 247 245 243 242 243 243 245 246 246 245 244 243 243 241 240 240
235 235 235 235 235 235 235 235 235 235 235 234 234 234 234 234 235 236 237 237 238 238 239 239 239 238 238 239 239 240 240 241 241 242 242 243 244 244 244 244 244 244 244 244 245 245 246 247 247 246 245 244 244 245 247 248 247 244 242 242 242 242 243
235 235 235 235 236 235 236 236 236 236 236 236 235 235 235 235 235 235 236 237 238 238 239 239 239 239 239 239 240 240 241 241 241 242 242 243 243 243 243 244 244 243 242 242 242 243 244 246 247 248 247 246 246 246 247 249 248 244 242 241 242 243 245
235 235 235 235 236 236 236 236 237 237 236 236 236 236 236 236 235 235 236 237 237 238 239 239 239 239 240 240 240 241 241 242 242 242 242 243 243 243 243 243 244 243 242 241 241 242 243 244 246 246 246 246 246 247 247 247 247 244 242 241 241 242 244
237 236 235 235 236 236 236 236 237 237 237 237 237 236 236 236 236 237 236 237 237 238 239 239 239 239 240 240 241 241 241 242 242 242 242 243 243 243 243 243 243 243 242 242 242 243 244 244 245 244 244 244 245 246 246 246 246 244 242 241 241 242 242
238 238 237 236 236 236 236 237 237 237 237 237 237 237 237 237 237 237 237 237 237 238 239 239 239 240 240 240 240 241 242 242 242 242 242 242 243 243 243 243 243 243 242 242 242 243 244 244 244 244 244 244 244 245 246 246 246 246 245 243 242 242 242
238 239 239 238 237 237 237 237 237 238 238 238 238 238 237 237 237 237 238 238 238 238 239 239 240 240 240 240 240 241 241 242 242 242 242 243 243 243 243 243 243 242 242 242 242 243 243 243 243 243 243 243 244 245 246 247 247 247 247 246 245 243 244
Height
10994 10997 10999 11002 11004 11007 11009 11011 11012 11014 11015 11015 11015 11016 11017 11018 11019 11019 11020 11021 11022 11022 11022 11022 11021 11020 11020 11020 11020 11020 11019 11018 11018 11017 11017 11016 11017 11017 11017 11018 11018 11018 11018 11019 11019 11019 11019 11019 11019 11018 11018 11017 11016 11016 11016 11016 11015 11015 11014 11014 11013 11013 11012
10990 10992 10994 10996 10999 11002 11004 11006 11008 11009 11010 11011 11011 11013 11015 11016 11017 11018 11019 11020 11022 11022 11023 11022 11021 11021 11020 11020 11020 11020 11020 11019 11019 11019 11018 11018 11017 11017 11017 11018 11018 11019 11019 11019 11020 11020 11020 11020 11020 11020 11019 11019 11018 11018 11018 11017 11017 11016 11016 11015 11015 11014 11014
10983 10984 10987 10991 10995 10998 10999 11000 11003 11004 11005 11006 11007 11010 11012 11014 11016 11017 11018 11020 11021 11022 11022 11022 11022 11021 11021 11020 11020 11021 11020 11020 11020 11020 11020 11019 11018 11018 11018 11018 11019 11019 11019 11020 11020 11020 11021 11021 11021 11020 11020 11020 11019 11019 11019 11019 11018 11017 11017 11016 11016 11016 11015
10974 10977 10982 10987 10991 10994 10995 10997 11000 11001 11003 11004 11006 11009 11011 11012 11014 11016 11017 11018 11019 11020 11021 11021 11022 11021 11021 11020 11020 11020 11020 11020 11020 11020 11020 11019 11019 11019 11019 11019 11019 11019 11020 11020 11021 11021 11021 11021 11021 11021 11021 11020 11020 11020 11020 11019 11018 11018 11017 11017 11017 11017 11016
10969 10974 10979 10983 10987 10991 10993 10996 10997 10999 11000 11003 11006 11008 11009 11011 11012 11014 11016 11017 11017 11018 11018 11019 11020 11020 11020 11020 11020 11019 11020 11020 11020 11020 11019 11019 11019 11019 11019 11019 11019 11019 11020 11020 11021 11021 11022 11022 11022 11022 11022 11021 11021 11021 11020 11019 11019 11018 11018 11018 11018 11018 11017
10966 10970 10974 10979 10984 10988 10991 10993 10994 10995 10997 11001 11004 11006 11007 11009 11010 11012 11014 11014 11014 11014 11015 11015 11017 11017 11018 11018 11019 11019 11019 11019 11020 11019 11019 11019 11019 11019 11019 11019 11019 11019 11019 11020 11021 11021 11021 11022 11022 11022 11022 11022 11021 11021 11020 11020 11019 11019 11019 11019 11019 11019 11018
10962 10965 10970 10976 10980 10983 10986 10988 10989 10991 10993 10996 11000 11003 11005 11006 11008 11010 11011 11011 11011 11011 11012 11013 11014 11016 11017 11017 11018 11018 11018 11019 11019 11019 11019 11019 11019 11019 11019 11019 11019 11019 11019 11019 11020 11020 11021 11021 11022 11022 11022 11022 11022 11021 11021 11020 11020 11020 11020 11020 11020 11020 11020
10957 10961 10967 10973 10976 10978 10980 10982 10984 10986 10989 10992 10997 11000 11002 11003 11005 11007 11008 11008 11009 11009 11010 11011 11013 11015 11016 11016 11017 11017 11018 11018 11018 11019 11019 11019 11019 11019 11019 11018 11018 11018 11019 11019 11019 11020 11020 11021 11021 11022 11022 11022 11022 11022 11022 11021 11021 11021 11022 11021 11021 11021 11021
10953 10958 10963 10969 10973 10974 10975 10976 10979 10982 10986 10990 10994 10996 10998 11001 11003 11004 11005 11007 11008 11008 11009 11010 11011 11012 11013 11015 11015 11015 11016 11017 11017 11018 11018 11018 11019 11019 11018 11018 11018 11018 11018 11018 11019 11019 11020 11020 11021 11021 11022 11022 11022 11022 11022 11022 11022 11023 11023 11023 11022 11022 11022
10949 10953 10959 10965 10968 10968 10969 10971 10975 10981 10985 10987 10989 10991 10995 10998 11000 11000 11001 11004 11005 11006 11006 11008 11009 11010 11011 11012 11013 11014 11015 11016 11017 11017 11017 11017 11017 11018 11018 11018 11017 11017 11017 11018 11018 11018 11019 11019 11020 11020 11021 11022 11022 11023 11023 11023 11023 11023 11023 11023 11023 11022 11022
10944 10949 10954 10959 10961 10961 10963 10967 10974 10980 10983 10984 10986 10989 10992 10995 10996 10997 10998 10999 11001 11003 11004 11004 11005 11007 11008 11009 11010 11011 11013 11015 11016 11016 11016 11016 11017 11017 11017 11017 11017 11017 11017 11017 11017 11018 11018 11019 11019 11020 11020 11021 11022 11023 11023 11023 11023 11023 11023 11023 11022 11022 11022
10939 10944 10949 10952 10954 10955 10958 10963 10972 10978 10979 10981 10984 10987 10989 10991 10992 10992 10993 10994 10997 11000 11001 11001 11003 11004 11005 11006 11006 11008 11010 11012 11013 11014 11015 11015 11016 11016 11016 11016 11016 11016 11016 11016 11017 11017 11018 11018 11019 11019 11020 11020 11021 11022 11022 11022 11022 11022 11022 11022 11022 11022 11022
10932 10937 10941 10945 10947 10949 10952 10958 10968 10974 10975 10977 10980 10980 10981 10982 10983 10985 10987 10991 10994 10997 10999 11000 11000 11001 11002 11003 11003 11005 11007 11009 11010 11011 11013 11014 11015 11015 11015 11015 11015 11016 11016 11016 11016 11017 11018 11018 11018 11019 11019 11019 11020 11020 11021 11021 11021 11021 11021 11021 11021 11021 11021
10924 10929 10933 10937 10939 10941 10945 10952 10961 10967 10970 10973 10972 10970 10972 10974 10976 10979 10984 10989 10993 10995 10997 10998 10997 10996 10998 11000 11000 11001 11004 11006 11006 11008 11010 11012 11012 11012 11013 11013 11013 11014 11015 11015 11016 11016 11017 11017 11018 11018 11018 11018 11019 11019 11020 11020 11020 11020 11020 11020 11020 11020 11020
10919 10922 10925 10929 10932 10934 10939 10946 10953 10959 10963 10963 10962 10963 10967 10970 10972 10976 10981 10986 10989 10990 10990 10991 10991 10991 10993 10996 10997 10998 11001 11002 11003 11005 11007 11008 11009 11009 11010 11011 11011 11012 11012 11014 11015 11015 11016 11016 11017 11017 11017 11017 11018 11018 11018 11019 11019 11019 11019 11019 11019 11019 11019
10912 10916 10919 10922 10925 10928 10933 10938 10944 10949 10953 10955 10955 10959 10962 10965 10969 10973 10978 10982 10984 10985 10985 10985 10986 10987 10990 10993 10995 10996 10997 10998 11000 11001 11003 11004 11005 11006 11007 11008 11009 11010 11010 11011 11012 11013 11014 11015 11015 11016 11016 11017 11017 11017 11017 11018 11018 11018 11018 11017 11017 11017 11018
10904 10908 10912 10916 10919 10922 10926 10930 10934 10939 10944 10948 10950 10951 10954 10959 10963 10967 10971 10976 10979 10981 10981 10981 10982 10984 10987 10990 10993 10994 10994 10994 10995 10996 10998 11000 11001 11002 11004 11005 11006 11007 11008 11009 11010 11011 11012 11012 11013 11014 11014 11015 11015 11016 11016 11016 11016 11016 11016 11016 11016 11016 11017
10896 10901 10906 10910 10913 10915 10919 10923 10926 10930 10935 10940 10943 10942 10944 10951 10956 10961 10967 10971 10974 10976 10975 10975 10977 10980 10982 10986 10988 10990 10990 10990 10990 10991 10993 10996 10997 10998 11000 11002 11003 11004 11005 11006 11007 11008 11009 11010 11011 11012 11012 11013 11014 11014 11015 11015 11015 11015 11015 11015 11015 11015 11016
10889 10895 10900 10904 10906 10909 10913 10916 10919 10922 10926 10931 10933 10933 10935 10943 10950 10956 10962 10966 10969 10970 10969 10970 10973 10976 10978 10981 10983 10985 10985 10986 10987 10988 10989 10991 10993 10994 10996 10997 10999 11001 11002 11004 11005 11006 11007 11008 11008 11010 11010 11011 11012 11012 11013 11013 11013 11013 11013 11014 11014 11014 11014
10881 10887 10892 10896 10898 10902 10905 10908 10911 10915 10918 10921 10924 10925 10928 10935 10943 10950 10955 10958 10962 10962 10962 10964 10968 10971 10975 10977 10978 10980 10982 10984 10984 10985 10986 10988 10990 10991 10992 10993 10995 10997 10998 11000 11002 11003 11004 11005 11006 11007 11008 11008 11009 11009 11010 11011 11011 11012 11012 11012 11012 11012 11012
10870 10876 10881 10885 10889 10892 10895 10898 10902 10906 10909 10912 10915 10918 10921 10927 10935 10943 10947 10949 10952 10954 10955 10959 10962 10966 10969 10970 10970 10973 10976 10978 10979 10981 10984 10986 10987 10988 10990 10991 10992 10994 10995 10997 10998 11000 11001 11002 11002 11003 11003 11004 11004 11004 11005 11006 11007 11008 11008 11009 11009 11009 11009
10858 10863 10868 10873 10877 10881 10885 10888 10892 10896 10900 10903 10907 10910 10913 10919 10927 10934 10937 10940 10943 10946 10949 10953 10956 10958 10961 10962 10965 10969 10970 10972 10974 10976 10979 10981 10982 10983 10986 10988 10989 10991 10992 10993 10995 10996 10997 10998 10998 10997 10997 10997 10998 10999 11001 11002 11003 11005 11005 11006 11006 11005 11005
10844 10850 10855 10859 10863 10868 10873 10878 10882 10886 10890 10894 10898 10902 10906 10911 10917 10923 10927 10932 10935 10938 10942 10946 10948 10951 10954 10956 10961 10964 10964 10965 10968 10970 10972 10974 10975 10977 10980 10983 10985 10987 10988 10989 10990 10990 10991 10992 10992 10991 10992 10994 10995 10996 10998 10999 11000 11002 11003 11003 11004 11004 11003
10832 10837 10842 10846 10850 10855 10862 10868 10873 10877 10881 10885 10889 10893 10898 10902 10908 10913 10918 10922 10926 10930 10934 10938 10941 10944 10948 10951 10955 10957 10958 10959 10961 10964 10967 10968 10968 10970 10972 10976 10979 10980 10981 10982 10983 10984 10985 10986 10985 10985 10988 10992 10992 10993 10994 10995 10996 10997 10998 10999 11000 11000 11000
10821 10825 10829 10833 10838 10844 10851 10858 10863 10867 10871 10876 10881 10885 10889 10894 10899 10904 10908 10913 10917 10920 10925 10928 10931 10936 10941 10945 10948 10950 10952 10952 10955 10958 10959 10959 10960 10962 10965 10968 10971 10972 10973 10976 10977 10978 10980 10981 10980 10979 10981 10986 10989 10990 10990 10990 10990 10992 10993 10995 10995 10995 10996
10812 10815 10819 10823 10828 10834 10841 10848 10854 10858 10861 10866 10871 10875 10880 10885 10891 10896 10900 10904 10907 10911 10915 10919 10922 10927 10933 10938 10941 10943 10944 10946 10948 10950 10950 10951 10953 10955 10958 10962 10964 10965 10966 10969 10971 10973 10975 10975 10975 10974 10975 10980 10984 10985 10984 10984 10985 10987 10988 10989 10990 10991 10992
10802 10806 10809 10814 10819 10825 10831 10838 10844 10849 10852 10856 10861 10866 10871 10875 10881 10887 10891 10894 10898 10902 10905 10909 10913 10918 10923 10929 10933 10936 10937 10938 10939 10940 10941 10944 10947 10949 10952 10955 10957 10959 10960 10961 10964 10967 10968 10968 10969 10971 10973 10976 10979 10980 10978 10978 10979 10981 10982 10983 10984 10986 10987
10790 10795 10800 10805 10811 10816 10822 10828 10834 10840 10844 10847 10851 10856 10862 10866 10870 10875 10879 10883 10887 10891 10895 10899 10903 10908 10912 10918 10924 10927 10928 10930 10930 10931 10932 10935 10938 10941 10943 10946 10950 10953 10954 10955 10958 10961 10962 10962 10963 10966 10970 10972 10974 10972 10970 10971 10973 10975 10976 10978 10979 10979 10980
10778 10784 10789 10795 10800 10806 10812 10818 10825 10831 10836 10839 10843 10847 10852 10857 10860 10863 10867 10871 10875 10880 10884 10888 10893 10898 10902 10907 10912 10916 10919 10920 10921 10922 10924 10927 10930 10932 10935 10938 10941 10945 10948 10949 10951 10953 10956 10957 10958 10961 10964 10965 10964 10962 10961 10963 10967 10968 10969 10971 10972 10972 10972
10767 10775 10782 10786 10790 10796 10802 10808 10814 10821 10826 10831 10834 10837 10842 10847 10851 10854 10856 10859 10864 10869 10874 10878 10883 10888 10892 10895 10899 10904 10907 10909 10911 10913 10915 10918 10921 10924 10927 10929 10932 10935 10938 10941 10943 10945 10947 10950 10952 10955 10956 10956 10955 10955 10955 10957 10959 10960 10962 10964 10964 10964 10965
10756 10765 10772 10777 10781 10785 10790 10796 10802 10808 10815 10821 10825 10828 10832 10836 10840 10843 10846 10849 10853 10857 10862 10867 10872 10877 10880 10883 10887 10890 10894 10897 10900 10902 10905 10909 10912 10915 10918 10921 10923 10925 10928 10931 10933 10935 10937 10940 10943 10946 10947 10948 10948 10948 10949 10950 10951 10953 10955 10956 10956 10957 10958
10745 10753 10759 10765 10769 10773 10778 10784 10790 10796 10802 10808 10813 10817 10821 10825 10829 10832 10835 10838 10842 10846 10850 10855 10860 10865 10868 10871 10874 10877 10881 10885 10888 10891 10895 10898 10902 10905 10909 10912 10915 10917 10919 10921 10923 10925 10927 10930 10933 10936 10938 10940 10941 10941 10941 10943 10944 10946 10947 10947 10948 10950 10951
10733 10739 10744 10750 10755 10760 10765 10770 10777 10783 10788 10794 10800 10804 10808 10813 10817 10820 10823 10826 10831 10835 10839 10844 10848 10852 10856 10859 10862 10865 10869 10873 10877 10880 10884 10888 10891 10895 10898 10901 10905 10908 10910 10911 10913 10915 10917 10919 10922 10925 10928 10930 10932 10933 10934 10935 10937 10939 10939 10940 10941 10943 10944
10719 10724 10729 10734 10740 10746 10752 10757 10763 10769 10775 10780 10786 10791 10796 10800 10805 10809 10812 10815 10819 10824 10828 10832 10836 10840 10844 10847 10850 10853 10857 10862 10866 10869 10873 10876 10880 10883 10886 10890 10893 10897 10899 10901 10903 10905 10908 10910 10912 10915 10917 10920 10923 10925 10926 10927 10929 10931 10931 10932 10933 10935 10937
10702 10709 10715 10721 10726 10732 10738 10744 10749 10754 10759 10765 10771 10777 10782 10787 10792 10797 10801 10805 10808 10812 10815 10819 10823 10827 10831 10835 10838 10841 10846 10850 10854 10858 10861 10865 10869 10872 10875 10878 10881 10885 10888 10891 10893 10895 10898 10901 10903 10905 10907 10910 10913 10915 10917 10919 10921 10922 10923 10923 10924 10927 10929
10686 10694 10701 10708 10713 10719 10725 10730 10734 10737 10742 10748 10755 10761 10768 10773 10778 10783 10789 10793 10796 10798 10801 10805 10809 10813 10818 10822 10826 10830 10834 10838 10842 10845 10849 10853 10856 10860 10863 10866 10870 10873 10877 10880 10883 10886 10888 10891 10893 10896 10898 10900 10903 10905 10907 10909 10911 10913 10914 10914 10915 10918 10922
10673 10679 10686 10693 10700 10705 10710 10714 10717 10721 10726 10732 10739 10746 10753 10759 10765 10769 10774 10778 10782 10785 10788 10791 10794 10799 10804 10809 10814 10818 10822 10825 10829 10833 10837 10841 10844 10847 10851 10855 10858 10861 10865 10868 10872 10875 10877 10880 10882 10885 10887 10889 10892 10894 10896 10898 10900 10902 10904 10905 10907 10910 10914
10660 10665 10671 10678 10685 10690 10693 10697 10702 10706 10712 10717 10724 10730 10738 10744 10750 10755 10759 10764 10769 10772 10775 10778 10781 10785 10790 10796 10801 10806 10809 10813 10817 10821 10824 10828 10831 10835 10838 10842 10846 10849 10852 10855 10859 10862 10865 10868 10871 10874 10876 10879 10881 10883 10885 10887 10889 10891 10894 10897 10899 10901 10903